Location: ?????
(55.8833°N, 37.6500°E)
Time: 16:40:06
(UTC+00:00)

NOSS 3-2 (C) - Pass Details

Date: 27 February 2020
Orbit: 811 x 1401 km, 63.4° (Epoch: 06 April)

Event Time Altitude Azimuth Distance (km) Brightness Sun altitude
Rises 15:21:13 0° 294° (WNW) 3,714 7.6 -4.0°
Reaches altitude 10° 15:23:45 10° 300° (WNW) 2,843 6.8 -4.4°
Maximum altitude 15:30:23 52° 16° (NNE) 1,404 4.2 -5.3°
Drops below altitude 10° 15:38:01 10° 92° (E) 3,263 5.6 -6.3°
Enters shadow 15:38:55 - 94° (E) 3,562 5.8 -6.5°
